Weather History for Jefferson City, MO

Change the Weather History Date:

Saturday, November 10, 2012

  Actual Average Record
Temperature  
Mean Temperature 69 °F -  
Max Temperature 79 °F 59 °F 82 °F (1949)
Min Temperature 59 °F 33 °F 13 °F (1960)
Cooling Degree Days 4    
Growing Degree Days 19 (Base 50)    
Moisture  
Dew Point 48 °F    
Average Humidity 49    
Maximum Humidity 64    
Minimum Humidity 29    
Precipitation  
Precipitation 0.00 in - - ()
Sea Level Pressure  
Sea Level Pressure 29.85 in    
Wind  
Wind Speed 10 mph (SSE)    
Max Wind Speed 21 mph    
Max Gust Speed 30 mph    
Visibility 10 miles    
Events      
Averages and records for this station are not official NWS values.
T = Trace of Precipitation, MM = Missing Value Source: NWS Daily Summary

Daily Weather History Graph

Daily Weather History Graph

Search for Another Location

Airport:

Trip Planner

Search our weather history database for the weather conditions in past years. The results will help you decide how hot, cold, wet, or windy it might be!

Date:

Astronomy

Nov. 10, 2012 Rise Set
Actual Time 6:45 AM CST 4:59 PM CST
Civil Twilight 6:17 AM CST 5:27 PM CST
Nautical Twilight 5:45 AM CST 5:58 PM CST
Astronomical Twilight 5:14 AM CST 6:30 PM CST
Moon 2:53 AM CST (11/10) 2:44 PM CST (11/10)
Length of Visible Light 11h 09m
Length of Day
10h 13m
Waning Crescent, 14% of the Moon is Illuminated
Nov 10
Waning Crescent
Nov 13
New
Nov 20
First Quarter
Nov 28
Full
Dec 6
Last Quarter

Hourly Weather History & Observations

Time (CST) Temp. Dew Point Humidity Pressure Visibility Wind Dir Wind Speed Gust Speed Precip Events Conditions
12:53 AM 62.1 °F 48.9 °F 62% 29.89 in 10.0 mi SE 6.9 mph - N/A   Clear
1:53 AM 61.0 °F 46.9 °F 60% 29.89 in 10.0 mi SE 6.9 mph - N/A   Clear
2:53 AM 60.1 °F 46.0 °F 60% 29.89 in 10.0 mi ESE 5.8 mph - N/A   Clear
3:53 AM 59.0 °F 46.0 °F 62% 29.88 in 10.0 mi ESE 5.8 mph - N/A   Clear
4:53 AM 59.0 °F 46.9 °F 64% 29.89 in 10.0 mi ESE 4.6 mph - N/A   Clear
5:53 AM 59.0 °F 46.9 °F 64% 29.89 in 10.0 mi ESE 4.6 mph - N/A   Clear
6:53 AM 63.0 °F 48.0 °F 58% 29.89 in 10.0 mi SE 8.1 mph - N/A   Clear
7:53 AM 64.0 °F 48.0 °F 56% 29.91 in 10.0 mi SSE 6.9 mph - N/A   Clear
8:53 AM 66.9 °F 48.0 °F 51% 29.91 in 10.0 mi Variable 5.8 mph 19.6 mph N/A   Clear
9:53 AM 70.0 °F 48.9 °F 47% 29.90 in 10.0 mi SSW 15.0 mph 23.0 mph N/A   Clear
10:53 AM 73.0 °F 48.9 °F 42% 29.88 in 10.0 mi South 16.1 mph 28.8 mph N/A   Clear
11:53 AM 75.9 °F 50.0 °F 40% 29.86 in 10.0 mi SSW 15.0 mph 24.2 mph N/A   Clear
12:53 PM 77.0 °F 48.0 °F 36% 29.83 in 10.0 mi South 18.4 mph 27.6 mph N/A   Clear
1:53 PM 79.0 °F 45.0 °F 30% 29.81 in 10.0 mi South 17.3 mph 26.5 mph N/A   Clear
2:53 PM 79.0 °F 44.1 °F 29% 29.80 in 10.0 mi South 11.5 mph - N/A   Clear
3:53 PM 77.0 °F 45.0 °F 32% 29.80 in 10.0 mi SSE 11.5 mph 24.2 mph N/A   Clear
4:53 PM 75.0 °F 44.1 °F 33% 29.79 in 10.0 mi SSE 16.1 mph - N/A   Clear
5:53 PM 73.0 °F 45.0 °F 37% 29.82 in 10.0 mi SSE 20.7 mph 24.2 mph N/A   Clear
6:53 PM 70.0 °F 46.0 °F 42% 29.83 in 10.0 mi SSE 10.4 mph 21.9 mph N/A   Clear
7:53 PM 66.9 °F 48.9 °F 52% 29.85 in 10.0 mi South 16.1 mph 23.0 mph N/A   Clear
8:53 PM 66.9 °F 50.0 °F 54% 29.83 in 10.0 mi SSE 16.1 mph 24.2 mph N/A   Clear
10:53 PM 66.9 °F 52.0 °F 59% 29.81 in 10.0 mi South 18.4 mph 29.9 mph N/A   Clear
11:53 PM 68.0 °F 52.0 °F 56% 29.81 in 10.0 mi South 16.1 mph 28.8 mph N/A   Clear